When you browse on this site, cookies collect data to enhance your experience and personalize the content and advertising you see.
Visit our Privacy Policy to learn more. By continuing to use the site, you agree to this use of cookies and data.
  • In United Kingdom
  • List of Countries
  • For 7 days
  • Water Temperature
  • Satellite Maps
  • Weather Map
  • Weather Widgets
  • user-avatar
    Login

    Hourly Weather Aberkenfig

    Today, 17 January, Thursday

    Time Temperature Precipitation Wind Pressure Humidity
    00:00 +2°C° 0 mm 7 mps 742 mmHg 89%
    01:00 +2°C° 0 mm 6 mps 742 mmHg 88%
    02:00 +2°C° 0 mm 6 mps 743 mmHg 87%
    03:00 +1°C° 0 mm 6 mps 743 mmHg 86%
    04:00 +1°C° 0 mm 6 mps 744 mmHg 85%
    05:00 0°C° 0 mm 7 mps 745 mmHg 85%
    06:00 +1°C° 0 mm 6 mps 746 mmHg 85%
    07:00 -1°C° 0 mm 6 mps 747 mmHg 82%
    08:00 0°C° 0 mm 5 mps 748 mmHg 79%
    09:00 -1°C° 0 mm 5 mps 749 mmHg 77%
    10:00 0°C° 0 mm 5 mps 750 mmHg 71%
    11:00 +2°C° 0 mm 6 mps 750 mmHg 66%
    12:00 +3°C° 0 mm 6 mps 751 mmHg 60%
    13:00 +3°C° 0 mm 5 mps 751 mmHg 61%
    14:00 +4°C° 0 mm 4 mps 752 mmHg 63%
    15:00 +4°C° 0 mm 4 mps 752 mmHg 64%
    16:00 +3°C° 0 mm 3 mps 752 mmHg 65%
    17:00 +3°C° 0 mm 2 mps 752 mmHg 67%
    18:00 +2°C° 0 mm 2 mps 752 mmHg 68%
    19:00 +3°C° 0 mm 1 mps 753 mmHg 68%
    20:00 +3°C° 0 mm 1 mps 753 mmHg 68%
    21:00 +2°C° 0 mm 0 mps 753 mmHg 68%
    22:00 +3°C° 0 mm 1 mps 753 mmHg 69%
    23:00 +2°C° 0 mm 2 mps 753 mmHg 69%

    Tomorrow, 18 January, Friday

    Time Temperature Precipitation Wind Pressure Humidity
    00:00 +1°C° 0 mm 3 mps 753 mmHg 70%
    01:00 +1°C° 0 mm 3 mps 753 mmHg 70%
    02:00 0°C° 0 mm 4 mps 752 mmHg 71%
    03:00 +1°C° 0 mm 4 mps 752 mmHg 71%
    04:00 +1°C° 0 mm 5 mps 751 mmHg 71%
    05:00 +1°C° 0 mm 5 mps 751 mmHg 71%
    06:00 +1°C° 0 mm 5 mps 750 mmHg 70%
    07:00 +1°C° 0.2 mm 6 mps 750 mmHg 72%
    08:00 +2°C° 0.2 mm 6 mps 749 mmHg 74%
    09:00 +2°C° 0.2 mm 7 mps 749 mmHg 75%
    10:00 +2°C° 1 mm 7 mps 748 mmHg 78%
    11:00 +1°C° 1 mm 8 mps 748 mmHg 81%
    12:00 +1°C° 1 mm 8 mps 748 mmHg 84%
    13:00 +2°C° 1.2 mm 8 mps 747 mmHg 87%
    14:00 +2°C° 1.2 mm 9 mps 746 mmHg 89%
    15:00 +2°C° 1.2 mm 9 mps 746 mmHg 91%
    16:00 +2°C° 0.7 mm 8 mps 746 mmHg 92%
    17:00 +4°C° 0.7 mm 7 mps 745 mmHg 93%
    18:00 +4°C° 0.7 mm 6 mps 745 mmHg 94%
    19:00 +5°C° 0.5 mm 5 mps 745 mmHg 92%
    20:00 +5°C° 0.5 mm 4 mps 745 mmHg 91%
    21:00 +5°C° 0.5 mm 3 mps 745 mmHg 89%
    22:00 +5°C° 0.4 mm 3 mps 744 mmHg 89%
    23:00 +5°C° 0.4 mm 4 mps 744 mmHg 89%

    Day after tomorrow, 19 January, Saturday

    Time Temperature Precipitation Wind Pressure Humidity
    00:00 +5°C° 0.4 mm 4 mps 744 mmHg 89%
    01:00 +5°C° 0.2 mm 4 mps 744 mmHg 89%
    02:00 +5°C° 0.2 mm 4 mps 744 mmHg 90%
    03:00 +5°C° 0.2 mm 4 mps 743 mmHg 90%
    04:00 +5°C° 0.7 mm 4 mps 743 mmHg 91%
    05:00 +5°C° 0.7 mm 4 mps 743 mmHg 91%
    06:00 +5°C° 0.7 mm 4 mps 743 mmHg 92%
    07:00 +5°C° 0 mm 4 mps 743 mmHg 91%
    08:00 +5°C° 0 mm 3 mps 743 mmHg 90%
    09:00 +5°C° 0 mm 3 mps 743 mmHg 90%
    10:00 +7°C° 0.1 mm 3 mps 743 mmHg 88%
    11:00 +8°C° 0.1 mm 3 mps 743 mmHg 86%
    12:00 +8°C° 0.1 mm 3 mps 743 mmHg 85%
    13:00 +8°C° 0.2 mm 3 mps 743 mmHg 86%
    14:00 +8°C° 0.2 mm 3 mps 743 mmHg 87%
    15:00 +8°C° 0.2 mm 2 mps 743 mmHg 88%
    16:00 +8°C° 0.5 mm 2 mps 744 mmHg 90%
    17:00 +7°C° 0.5 mm 2 mps 744 mmHg 92%
    18:00 +7°C° 0.5 mm 2 mps 744 mmHg 94%
    19:00 +6°C° 0.2 mm 2 mps 745 mmHg 95%
    20:00 +6°C° 0.2 mm 2 mps 745 mmHg 95%
    21:00 +5°C° 0.2 mm 3 mps 745 mmHg 95%
    22:00 +4°C° 0 mm 3 mps 746 mmHg 95%
    23:00 +4°C° 0 mm 3 mps 746 mmHg 95%

    20 January, Sunday

    Time Temperature Precipitation Wind Pressure Humidity
    00:00 +3°C° 0 mm 3 mps 747 mmHg 95%
    01:00 +3°C° 0 mm 3 mps 747 mmHg 94%
    02:00 +3°C° 0 mm 3 mps 747 mmHg 94%
    03:00 +2°C° 0 mm 3 mps 748 mmHg 93%
    04:00 +2°C° 0 mm 3 mps 748 mmHg 93%
    05:00 +2°C° 0 mm 3 mps 749 mmHg 93%
    06:00 +2°C° 0 mm 3 mps 750 mmHg 93%
    07:00 +2°C° 0 mm 3 mps 750 mmHg 93%
    08:00 +3°C° 0 mm 3 mps 751 mmHg 92%
    09:00 +3°C° 0 mm 3 mps 752 mmHg 92%
    10:00 +4°C° 0 mm 4 mps 753 mmHg 90%
    11:00 +5°C° 0 mm 5 mps 753 mmHg 88%
    12:00 +5°C° 0 mm 6 mps 754 mmHg 86%
    13:00 +4°C° 0 mm 7 mps 754 mmHg 85%
    14:00 +4°C° 0 mm 7 mps 755 mmHg 84%
    15:00 +4°C° 0 mm 7 mps 755 mmHg 82%
    16:00 +3°C° 0 mm 7 mps 756 mmHg 82%
    17:00 +3°C° 0 mm 7 mps 757 mmHg 82%
    18:00 +2°C° 0 mm 6 mps 757 mmHg 82%
    19:00 +1°C° 0 mm 6 mps 758 mmHg 82%
    20:00 +1°C° 0 mm 6 mps 759 mmHg 82%
    21:00 0°C° 0 mm 5 mps 759 mmHg 83%
    22:00 0°C° 0 mm 5 mps 760 mmHg 83%
    23:00 0°C° 0 mm 4 mps 760 mmHg 83%

    21 January, Monday

    Time Temperature Precipitation Wind Pressure Humidity
    00:00 0°C° 0 mm 4 mps 760 mmHg 83%
    01:00 -1°C° 0 mm 4 mps 760 mmHg 83%
    02:00 0°C° 0 mm 3 mps 760 mmHg 83%
    03:00 0°C° 0 mm 3 mps 760 mmHg 83%
    04:00 0°C° 0 mm 3 mps 760 mmHg 83%
    05:00 +1°C° 0 mm 2 mps 760 mmHg 83%
    06:00 +1°C° 0 mm 2 mps 760 mmHg 83%
    07:00 +2°C° 0 mm 1 mps 760 mmHg 83%
    08:00 +2°C° 0 mm 1 mps 760 mmHg 83%
    09:00 +1°C° 0 mm 0 mps 760 mmHg 83%
    10:00 +4°C° 0 mm 1 mps 759 mmHg 79%
    11:00 +4°C° 0 mm 2 mps 759 mmHg 75%
    12:00 +4°C° 0 mm 3 mps 758 mmHg 71%
    13:00 +4°C° 0.1 mm 4 mps 757 mmHg 72%
    14:00 +3°C° 0.1 mm 5 mps 756 mmHg 74%
    15:00 +3°C° 0.1 mm 5 mps 755 mmHg 75%
    16:00 +3°C° 0.1 mm 6 mps 754 mmHg 76%
    17:00 +3°C° 0.1 mm 6 mps 752 mmHg 77%
    18:00 +3°C° 0.1 mm 7 mps 751 mmHg 78%
    19:00 +2°C° 0.5 mm 8 mps 749 mmHg 80%
    20:00 +2°C° 0.5 mm 9 mps 748 mmHg 83%
    21:00 +2°C° 0.5 mm 10 mps 746 mmHg 85%
    22:00 +2°C° 2.5 mm 10 mps 745 mmHg 87%
    23:00 +2°C° 2.5 mm 10 mps 743 mmHg 90%

    22 January, Tuesday

    Time Temperature Precipitation Wind Pressure Humidity
    00:00 +2°C° 2.5 mm 10 mps 742 mmHg 92%
    01:00 +1°C° 0.4 mm 9 mps 741 mmHg 88%
    02:00 0°C° 0.4 mm 9 mps 741 mmHg 84%
    03:00 -1°C° 0.4 mm 8 mps 740 mmHg 80%
    04:00 -1°C° 0 mm 8 mps 740 mmHg 80%
    05:00 -1°C° 0 mm 8 mps 740 mmHg 80%
    06:00 -2°C° 0 mm 8 mps 740 mmHg 80%
    07:00 -1°C° 0.1 mm 9 mps 740 mmHg 80%
    08:00 -1°C° 0.1 mm 9 mps 740 mmHg 79%
    09:00 0°C° 0.1 mm 9 mps 740 mmHg 78%
    10:00 0°C° 0.1 mm 10 mps 741 mmHg 76%
    11:00 -1°C° 0.1 mm 11 mps 741 mmHg 73%
    12:00 +1°C° 0.1 mm 11 mps 741 mmHg 70%
    13:00 +1°C° 0 mm 11 mps 741 mmHg 71%
    14:00 +1°C° 0 mm 10 mps 740 mmHg 71%
    15:00 +1°C° 0 mm 10 mps 740 mmHg 71%
    16:00 0°C° 0 mm 9 mps 740 mmHg 72%
    17:00 0°C° 0 mm 9 mps 740 mmHg 74%
    18:00 0°C° 0 mm 8 mps 740 mmHg 76%
    19:00 -1°C° 0 mm 8 mps 740 mmHg 76%
    20:00 -1°C° 0 mm 8 mps 741 mmHg 76%
    21:00 -1°C° 0 mm 8 mps 741 mmHg 76%
    22:00 -1°C° 0 mm 8 mps 741 mmHg 76%
    23:00 -1°C° 0 mm 9 mps 742 mmHg 75%
    Show more